Time,TemperatureF,DewpointF,PressureIn,WindDirection,WindDirectionDegrees,WindSpeedMPH,WindSpeedGustMPH,Humidity,HourlyPrecipIn,Conditions,Clouds,dailyrainin,SoftwareType,DateUTC
2013-03-11 00:03:00,21.0,18.0,29.99,NNW,340,17.0,-999.0,85,-99.99,,,-99.99,,2013-03-11 05:03:00,
2013-03-11 00:12:00,21.0,18.0,29.98,NNW,340,13.0,20.0,85,-99.99,,,-99.99,,2013-03-11 05:12:00,
2013-03-11 00:22:00,21.0,18.0,29.98,NNW,340,13.0,20.0,85,-99.99,,,-99.99,,2013-03-11 05:22:00,
2013-03-11 00:32:00,21.0,18.0,29.98,NNW,340,14.0,21.0,85,-99.99,,,-99.99,,2013-03-11 05:32:00,
2013-03-11 00:42:00,21.0,18.0,29.98,NNW,340,14.0,21.0,85,-99.99,,,-99.99,,2013-03-11 05:42:00,
2013-03-11 00:52:00,21.0,18.0,29.98,NNW,340,16.0,25.0,85,-99.99,,,-99.99,,2013-03-11 05:52:00,
2013-03-11 01:02:00,21.0,18.0,29.98,NNW,340,16.0,25.0,85,-99.99,,,-99.99,,2013-03-11 06:02:00,
2013-03-11 01:12:00,21.0,18.0,29.96,North,350,16.0,22.0,85,-99.99,,,-99.99,,2013-03-11 06:12:00,
2013-03-11 01:22:00,21.0,18.0,29.96,North,350,16.0,22.0,85,-99.99,,,-99.99,,2013-03-11 06:22:00,
2013-03-11 01:32:00,21.0,18.0,29.96,NNW,340,15.0,-999.0,85,-99.99,,,-99.99,,2013-03-11 06:32:00,
2013-03-11 01:42:00,21.0,18.0,29.96,NNW,340,15.0,-999.0,85,-99.99,,,-99.99,,2013-03-11 06:42:00,
2013-03-11 01:52:00,21.0,18.0,29.95,NNW,340,12.0,17.0,85,-99.99,,,-99.99,,2013-03-11 06:52:00,
2013-03-11 02:02:00,21.0,18.0,29.95,NNW,340,12.0,17.0,85,-99.99,,,-99.99,,2013-03-11 07:02:00,
2013-03-11 02:12:00,21.0,18.0,29.95,NNW,330,14.0,18.0,85,-99.99,,,-99.99,,2013-03-11 07:12:00,
2013-03-11 02:22:00,21.0,18.0,29.95,NNW,330,14.0,18.0,85,-99.99,,,-99.99,,2013-03-11 07:22:00,
2013-03-11 02:32:00,21.0,18.0,29.95,NW,320,14.0,-999.0,85,-99.99,,,-99.99,,2013-03-11 07:32:00,
2013-03-11 02:42:00,21.0,18.0,29.95,NW,320,14.0,-999.0,85,-99.99,,,-99.99,,2013-03-11 07:42:00,
2013-03-11 02:52:00,21.0,18.0,29.96,NNW,330,10.0,-999.0,85,-99.99,,,-99.99,,2013-03-11 07:52:00,
2013-03-11 03:02:00,21.0,18.0,29.96,NNW,330,10.0,-999.0,85,-99.99,,,-99.99,,2013-03-11 08:02:00,
2013-03-11 03:12:00,21.0,18.0,29.96,NW,320,15.0,-999.0,85,-99.99,,,-99.99,,2013-03-11 08:12:00,
2013-03-11 03:22:00,21.0,18.0,29.96,NW,320,15.0,-999.0,85,-99.99,,,-99.99,,2013-03-11 08:22:00,
2013-03-11 03:32:00,21.0,18.0,29.95,NW,310,12.0,16.0,85,-99.99,,,-99.99,,2013-03-11 08:32:00,
2013-03-11 03:42:00,21.0,18.0,29.95,NW,310,12.0,16.0,85,-99.99,,,-99.99,,2013-03-11 08:42:00,
2013-03-11 03:52:00,21.0,18.0,29.94,NNW,340,13.0,17.0,85,-99.99,,,-99.99,,2013-03-11 08:52:00,
2013-03-11 04:02:00,21.0,18.0,29.94,NNW,340,13.0,17.0,85,-99.99,,,-99.99,,2013-03-11 09:02:00,
2013-03-11 04:12:00,21.0,18.0,29.93,North,350,10.0,-999.0,85,-99.99,,,-99.99,,2013-03-11 09:12:00,
2013-03-11 04:23:00,21.0,18.0,29.93,North,350,10.0,-999.0,85,-99.99,,,-99.99,,2013-03-11 09:23:00,
2013-03-11 04:32:00,21.0,18.0,29.93,NW,320,13.0,-999.0,85,-99.99,,,-99.99,,2013-03-11 09:32:00,
2013-03-11 04:42:00,21.0,18.0,29.93,NW,320,13.0,-999.0,85,-99.99,,,-99.99,,2013-03-11 09:42:00,
2013-03-11 04:52:00,19.0,16.0,29.93,NW,320,10.0,-999.0,85,-99.99,,,-99.99,,2013-03-11 09:52:00,
2013-03-11 05:02:00,19.0,16.0,29.93,NW,320,10.0,-999.0,85,-99.99,,,-99.99,,2013-03-11 10:02:00,
2013-03-11 05:12:00,19.0,16.0,29.93,NNW,330,12.0,16.0,85,-99.99,,,-99.99,,2013-03-11 10:12:00,
2013-03-11 05:22:00,19.0,16.0,29.93,NNW,330,12.0,16.0,85,-99.99,,,-99.99,,2013-03-11 10:22:00,
2013-03-11 05:32:00,19.0,16.0,29.92,NW,310,13.0,-999.0,85,-99.99,,,-99.99,,2013-03-11 10:32:00,
2013-03-11 05:42:00,19.0,16.0,29.92,NW,310,13.0,-999.0,85,-99.99,,,-99.99,,2013-03-11 10:42:00,
2013-03-11 05:52:00,19.0,16.0,29.92,NNW,330,9.0,-999.0,85,-99.99,,,-99.99,,2013-03-11 10:52:00,
2013-03-11 06:02:00,19.0,16.0,29.92,NNW,330,9.0,-999.0,85,-99.99,,,-99.99,,2013-03-11 11:02:00,
2013-03-11 06:12:00,19.0,16.0,29.92,NW,320,10.0,-999.0,85,-99.99,,,-99.99,,2013-03-11 11:12:00,
2013-03-11 06:22:00,19.0,16.0,29.92,NW,320,10.0,-999.0,85,-99.99,,,-99.99,,2013-03-11 11:22:00,
2013-03-11 06:32:00,19.0,16.0,29.92,NNW,340,9.0,-999.0,85,-99.99,,,-99.99,,2013-03-11 11:32:00,
2013-03-11 06:42:00,19.0,16.0,29.92,NNW,340,9.0,-999.0,85,-99.99,,,-99.99,,2013-03-11 11:42:00,
2013-03-11 06:52:00,18.0,14.0,29.92,NNW,330,9.0,-999.0,85,-99.99,,,-99.99,,2013-03-11 11:52:00,
2013-03-11 07:02:00,18.0,14.0,29.92,NNW,330,9.0,-999.0,85,-99.99,,,-99.99,,2013-03-11 12:02:00,
2013-03-11 07:12:00,18.0,14.0,29.92,NW,310,8.0,-999.0,85,-99.99,,,-99.99,,2013-03-11 12:12:00,
2013-03-11 07:22:00,18.0,14.0,29.92,NW,310,8.0,-999.0,85,-99.99,,,-99.99,,2013-03-11 12:22:00,
2013-03-11 07:32:00,18.0,12.0,29.93,WNW,300,10.0,16.0,78,-99.99,,,-99.99,,2013-03-11 12:32:00,
2013-03-11 07:42:00,18.0,12.0,29.93,WNW,300,10.0,16.0,78,-99.99,,,-99.99,,2013-03-11 12:42:00,
2013-03-11 07:52:00,16.0,12.0,29.93,NW,310,9.0,-999.0,85,-99.99,,,-99.99,,2013-03-11 12:52:00,
2013-03-11 08:02:00,16.0,12.0,29.93,NW,310,9.0,-999.0,85,-99.99,,,-99.99,,2013-03-11 13:02:00,
2013-03-11 08:12:00,16.0,10.0,29.93,NW,310,9.0,-999.0,78,-99.99,,,-99.99,,2013-03-11 13:12:00,
2013-03-11 08:22:00,16.0,10.0,29.93,NW,310,9.0,-999.0,78,-99.99,,,-99.99,,2013-03-11 13:22:00,
2013-03-11 08:32:00,16.0,10.0,29.93,WNW,300,9.0,-999.0,78,-99.99,,,-99.99,,2013-03-11 13:32:00,
2013-03-11 08:42:00,16.0,10.0,29.93,WNW,300,9.0,-999.0,78,-99.99,,,-99.99,,2013-03-11 13:42:00,
2013-03-11 08:52:00,16.0,10.0,29.92,WNW,300,10.0,-999.0,78,-99.99,,,-99.99,,2013-03-11 13:52:00,
2013-03-11 09:02:00,16.0,10.0,29.92,WNW,300,10.0,-999.0,78,-99.99,,,-99.99,,2013-03-11 14:02:00,
2013-03-11 09:12:00,18.0,12.0,29.92,WNW,300,12.0,-999.0,78,-99.99,,,-99.99,,2013-03-11 14:12:00,
2013-03-11 09:22:00,18.0,12.0,29.92,WNW,300,12.0,-999.0,78,-99.99,,,-99.99,,2013-03-11 14:22:00,
2013-03-11 09:32:00,18.0,12.0,29.92,WNW,290,14.0,-999.0,78,-99.99,,,-99.99,,2013-03-11 14:32:00,
2013-03-11 09:42:00,18.0,12.0,29.92,WNW,290,14.0,-999.0,78,-99.99,,,-99.99,,2013-03-11 14:42:00,
2013-03-11 09:52:00,19.0,16.0,29.92,WNW,300,10.0,-999.0,85,-99.99,,,-99.99,,2013-03-11 14:52:00,
2013-03-11 10:02:00,19.0,16.0,29.92,WNW,300,10.0,-999.0,85,-99.99,,,-99.99,,2013-03-11 15:02:00,
2013-03-11 10:12:00,19.0,16.0,29.92,WNW,300,12.0,-999.0,85,-99.99,,,-99.99,,2013-03-11 15:12:00,
2013-03-11 10:22:00,19.0,16.0,29.92,WNW,300,12.0,-999.0,85,-99.99,,,-99.99,,2013-03-11 15:22:00,
2013-03-11 10:32:00,21.0,16.0,29.91,NW,310,9.0,-999.0,79,-99.99,,,-99.99,,2013-03-11 15:32:00,
2013-03-11 10:42:00,21.0,16.0,29.91,NW,310,9.0,-999.0,79,-99.99,,,-99.99,,2013-03-11 15:42:00,
2013-03-11 10:52:00,21.0,16.0,29.91,WNW,300,9.0,-999.0,79,-99.99,,,-99.99,,2013-03-11 15:52:00,
2013-03-11 11:02:00,21.0,16.0,29.91,WNW,300,9.0,-999.0,79,-99.99,,,-99.99,,2013-03-11 16:02:00,
2013-03-11 11:12:00,21.0,16.0,29.91,WNW,300,9.0,-999.0,79,-99.99,,,-99.99,,2013-03-11 16:12:00,
2013-03-11 11:22:00,21.0,16.0,29.91,WNW,300,9.0,-999.0,79,-99.99,,,-99.99,,2013-03-11 16:22:00,
2013-03-11 11:32:00,21.0,16.0,29.91,NW,310,8.0,-999.0,79,-99.99,,,-99.99,,2013-03-11 16:32:00,
2013-03-11 11:43:00,21.0,16.0,29.91,NW,310,8.0,-999.0,79,-99.99,,,-99.99,,2013-03-11 16:43:00,
2013-03-11 11:52:00,23.0,18.0,29.91,NW,310,6.0,-999.0,79,-99.99,,,-99.99,,2013-03-11 16:52:00,
2013-03-11 12:02:00,23.0,18.0,29.91,NW,310,6.0,-999.0,79,-99.99,,,-99.99,,2013-03-11 17:02:00,
2013-03-11 12:14:00,25.0,18.0,29.90,WNW,300,8.0,-999.0,73,-99.99,,,-99.99,,2013-03-11 17:14:00,
2013-03-11 12:25:00,25.0,18.0,29.90,WNW,300,8.0,-999.0,73,-99.99,,,-99.99,,2013-03-11 17:25:00,
2013-03-11 12:35:00,25.0,18.0,29.90,WNW,290,10.0,-999.0,73,-99.99,,,-99.99,,2013-03-11 17:35:00,
2013-03-11 12:42:00,25.0,18.0,29.90,WNW,290,10.0,-999.0,73,-99.99,,,-99.99,,2013-03-11 17:42:00,
2013-03-11 12:52:00,25.0,19.0,29.89,WNW,290,8.0,-999.0,79,-99.99,,,-99.99,,2013-03-11 17:52:00,
2013-03-11 13:02:00,25.0,19.0,29.89,WNW,290,8.0,-999.0,79,-99.99,,,-99.99,,2013-03-11 18:02:00,
2013-03-11 13:12:00,25.0,19.0,29.89,WNW,290,9.0,-999.0,79,-99.99,,,-99.99,,2013-03-11 18:12:00,
2013-03-11 13:23:00,25.0,19.0,29.89,WNW,290,9.0,-999.0,79,-99.99,,,-99.99,,2013-03-11 18:23:00,
2013-03-11 13:32:00,27.0,19.0,29.88,West,280,7.0,-999.0,73,-99.99,,,-99.99,,2013-03-11 18:32:00,
2013-03-11 13:42:00,27.0,19.0,29.88,West,280,7.0,-999.0,73,-99.99,,,-99.99,,2013-03-11 18:42:00,
2013-03-11 13:52:00,27.0,21.0,29.88,West,270,7.0,-999.0,79,-99.99,,,-99.99,,2013-03-11 18:52:00,
2013-03-11 14:02:00,27.0,21.0,29.88,West,270,7.0,-999.0,79,-99.99,,,-99.99,,2013-03-11 19:02:00,
2013-03-11 14:12:00,27.0,21.0,29.88,West,270,7.0,-999.0,79,-99.99,,,-99.99,,2013-03-11 19:12:00,
2013-03-11 14:22:00,27.0,21.0,29.88,West,270,7.0,-999.0,79,-99.99,,,-99.99,,2013-03-11 19:22:00,
2013-03-11 14:32:00,28.0,21.0,29.87,WNW,300,7.0,-999.0,74,-99.99,,,-99.99,,2013-03-11 19:32:00,
2013-03-11 14:43:00,28.0,21.0,29.87,WNW,300,7.0,-999.0,74,-99.99,,,-99.99,,2013-03-11 19:43:00,
2013-03-11 14:53:00,28.0,23.0,29.86,WNW,300,8.0,-999.0,79,-99.99,,,-99.99,,2013-03-11 19:53:00,
2013-03-11 15:02:00,28.0,23.0,29.86,WNW,300,8.0,-999.0,79,-99.99,,,-99.99,,2013-03-11 20:02:00,
2013-03-11 15:12:00,28.0,21.0,29.86,WNW,300,8.0,-999.0,74,-99.99,,,-99.99,,2013-03-11 20:12:00,
2013-03-11 15:22:00,28.0,21.0,29.86,WNW,300,8.0,-999.0,74,-99.99,,,-99.99,,2013-03-11 20:22:00,
2013-03-11 15:32:00,28.0,21.0,29.86,NW,320,9.0,-999.0,74,-99.99,,,-99.99,,2013-03-11 20:32:00,
2013-03-11 15:43:00,28.0,21.0,29.86,NW,320,9.0,-999.0,74,-99.99,,,-99.99,,2013-03-11 20:43:00,
2013-03-11 15:52:00,30.0,19.0,29.86,WNW,290,13.0,-999.0,63,-99.99,,,-99.99,,2013-03-11 20:52:00,
2013-03-11 16:03:00,30.0,19.0,29.86,WNW,290,13.0,-999.0,63,-99.99,,,-99.99,,2013-03-11 21:03:00,
2013-03-11 16:12:00,30.0,21.0,29.86,NW,310,8.0,-999.0,68,-99.99,,,-99.99,,2013-03-11 21:12:00,
2013-03-11 16:22:00,30.0,21.0,29.86,NW,310,8.0,-999.0,68,-99.99,,,-99.99,,2013-03-11 21:22:00,
2013-03-11 16:32:00,30.0,21.0,29.86,NW,320,12.0,-999.0,68,-99.99,,,-99.99,,2013-03-11 21:32:00,
2013-03-11 16:43:00,30.0,21.0,29.86,NW,320,12.0,-999.0,68,-99.99,,,-99.99,,2013-03-11 21:43:00,
2013-03-11 16:52:00,30.0,21.0,29.86,WNW,290,12.0,-999.0,68,-99.99,,,-99.99,,2013-03-11 21:52:00,
2013-03-11 17:02:00,30.0,21.0,29.86,WNW,290,12.0,-999.0,68,-99.99,,,-99.99,,2013-03-11 22:02:00,
2013-03-11 17:12:00,32.0,21.0,29.85,NW,310,6.0,-999.0,63,-99.99,,,-99.99,,2013-03-11 22:12:00,
2013-03-11 17:22:00,32.0,21.0,29.85,NW,310,6.0,-999.0,63,-99.99,,,-99.99,,2013-03-11 22:22:00,
2013-03-11 17:32:00,30.0,19.0,29.86,NW,320,10.0,-999.0,63,-99.99,,,-99.99,,2013-03-11 22:32:00,
2013-03-11 17:43:00,30.0,19.0,29.86,NW,320,10.0,-999.0,63,-99.99,,,-99.99,,2013-03-11 22:43:00,
2013-03-11 17:52:00,30.0,21.0,29.86,WNW,300,10.0,-999.0,68,-99.99,,,-99.99,,2013-03-11 22:52:00,
2013-03-11 18:03:00,30.0,21.0,29.86,WNW,300,10.0,-999.0,68,-99.99,,,-99.99,,2013-03-11 23:03:00,
2013-03-11 18:12:00,32.0,25.0,29.87,West,270,10.0,-999.0,74,-99.99,,,-99.99,,2013-03-11 23:12:00,
2013-03-11 18:22:00,32.0,25.0,29.87,West,270,10.0,-999.0,74,-99.99,,,-99.99,,2013-03-11 23:22:00,
2013-03-11 18:32:00,30.0,21.0,29.88,West,280,13.0,17.0,68,-99.99,,,-99.99,,2013-03-11 23:32:00,
2013-03-11 18:43:00,30.0,21.0,29.88,West,280,13.0,17.0,68,-99.99,,,-99.99,,2013-03-11 23:43:00,
2013-03-11 18:52:00,30.0,21.0,29.88,WNW,290,13.0,-999.0,68,-99.99,,,-99.99,,2013-03-11 23:52:00,
2013-03-11 19:02:00,30.0,21.0,29.88,WNW,290,13.0,-999.0,68,-99.99,,,-99.99,,2013-03-12 00:02:00,
2013-03-11 19:12:00,30.0,23.0,29.89,WNW,290,9.0,-999.0,74,-99.99,,,-99.99,,2013-03-12 00:12:00,
2013-03-11 19:22:00,30.0,23.0,29.89,WNW,290,9.0,-999.0,74,-99.99,,,-99.99,,2013-03-12 00:22:00,
2013-03-11 19:33:00,30.0,21.0,29.90,West,280,10.0,-999.0,68,-99.99,,,-99.99,,2013-03-12 00:33:00,
2013-03-11 19:42:00,30.0,21.0,29.90,West,280,10.0,-999.0,68,-99.99,,,-99.99,,2013-03-12 00:42:00,
2013-03-11 19:53:00,28.0,21.0,29.90,WNW,290,9.0,-999.0,74,-99.99,,,-99.99,,2013-03-12 00:53:00,
2013-03-11 20:02:00,28.0,21.0,29.90,WNW,290,9.0,-999.0,74,-99.99,,,-99.99,,2013-03-12 01:02:00,
2013-03-11 20:12:00,28.0,23.0,29.91,WNW,290,7.0,-999.0,79,-99.99,,,-99.99,,2013-03-12 01:12:00,
2013-03-11 20:22:00,28.0,23.0,29.91,WNW,290,7.0,-999.0,79,-99.99,,,-99.99,,2013-03-12 01:22:00,
2013-03-11 20:32:00,28.0,23.0,29.92,WNW,290,8.0,-999.0,79,-99.99,,,-99.99,,2013-03-12 01:32:00,
2013-03-11 20:42:00,28.0,23.0,29.92,WNW,290,8.0,-999.0,79,-99.99,,,-99.99,,2013-03-12 01:42:00,
2013-03-11 20:52:00,28.0,23.0,29.93,West,280,10.0,-999.0,79,-99.99,,,-99.99,,2013-03-12 01:52:00,
2013-03-11 21:02:00,28.0,23.0,29.93,West,280,10.0,-999.0,79,-99.99,,,-99.99,,2013-03-12 02:02:00,
2013-03-11 21:12:00,28.0,23.0,29.93,West,280,10.0,-999.0,79,-99.99,,,-99.99,,2013-03-12 02:12:00,
2013-03-11 21:22:00,28.0,23.0,29.93,West,280,10.0,-999.0,79,-99.99,,,-99.99,,2013-03-12 02:22:00,
2013-03-11 21:32:00,28.0,23.0,29.94,NW,310,12.0,18.0,79,-99.99,,,-99.99,,2013-03-12 02:32:00,
2013-03-11 21:43:00,28.0,23.0,29.94,NW,310,12.0,18.0,79,-99.99,,,-99.99,,2013-03-12 02:43:00,
2013-03-11 21:52:00,30.0,25.0,29.94,NNW,330,13.0,20.0,80,-99.99,,,-99.99,,2013-03-12 02:52:00,
2013-03-11 22:02:00,30.0,25.0,29.94,NNW,330,13.0,20.0,80,-99.99,,,-99.99,,2013-03-12 03:02:00,
2013-03-11 22:12:00,28.0,25.0,29.95,NNW,330,9.0,-999.0,86,-99.99,,,-99.99,,2013-03-12 03:12:00,
2013-03-11 22:22:00,28.0,25.0,29.95,NNW,330,9.0,-999.0,86,-99.99,,,-99.99,,2013-03-12 03:22:00,
2013-03-11 22:32:00,28.0,25.0,29.96,NW,320,9.0,-999.0,86,-99.99,,,-99.99,,2013-03-12 03:32:00,
2013-03-11 22:42:00,28.0,25.0,29.96,NW,320,9.0,-999.0,86,-99.99,,,-99.99,,2013-03-12 03:42:00,
2013-03-11 22:52:00,28.0,25.0,29.96,NNW,340,10.0,15.0,86,-99.99,,,-99.99,,2013-03-12 03:52:00,
2013-03-11 23:02:00,28.0,25.0,29.96,NNW,340,10.0,15.0,86,-99.99,,,-99.99,,2013-03-12 04:02:00,
2013-03-11 23:13:00,28.0,25.0,29.97,North,350,6.0,-999.0,86,-99.99,,,-99.99,,2013-03-12 04:13:00,
2013-03-11 23:22:00,28.0,25.0,29.97,North,350,6.0,-999.0,86,-99.99,,,-99.99,,2013-03-12 04:22:00,
2013-03-11 23:32:00,27.0,23.0,29.97,NNW,330,5.0,-999.0,86,-99.99,,,-99.99,,2013-03-12 04:32:00,
2013-03-11 23:43:00,27.0,23.0,29.97,NNW,330,5.0,-999.0,86,-99.99,,,-99.99,,2013-03-12 04:43:00,
2013-03-11 23:52:00,27.0,25.0,29.97,North,0,0.0,-999.0,92,-99.99,,,-99.99,,2013-03-12 04:52:00,